Stündliche Wetter Abrykosivka

Heute, 22 Juni, Dienstag

Zeit Temperatur Niederschläge Wind Luftdruck Luftfeuchtigkeit
00:00 +24°C° 0 mm 1 m/S 755 mmHg 78%
01:00 +23°C° 0 mm 1 m/S 755 mmHg 79%
02:00 +23°C° 0 mm 1 m/S 755 mmHg 79%
03:00 +23°C° 0 mm 2 m/S 755 mmHg 79%
04:00 +23°C° 0 mm 2 m/S 755 mmHg 79%
05:00 +23°C° 0 mm 2 m/S 755 mmHg 79%
06:00 +25°C° 0 mm 2 m/S 755 mmHg 74%
07:00 +26°C° 0 mm 3 m/S 755 mmHg 68%
08:00 +28°C° 0 mm 3 m/S 755 mmHg 62%
09:00 +29°C° 0 mm 3 m/S 755 mmHg 60%
10:00 +30°C° 0 mm 3 m/S 756 mmHg 58%
11:00 +31°C° 0 mm 3 m/S 756 mmHg 55%
12:00 +33°C° 0 mm 3 m/S 756 mmHg 55%
13:00 +33°C° 0 mm 3 m/S 756 mmHg 55%
14:00 +33°C° 0 mm 4 m/S 756 mmHg 55%
15:00 +32°C° 0.1 mm 4 m/S 756 mmHg 58%
16:00 +30°C° 0.1 mm 4 m/S 756 mmHg 62%
17:00 +29°C° 0.1 mm 3 m/S 756 mmHg 65%
18:00 +28°C° 0.5 mm 3 m/S 756 mmHg 72%
19:00 +26°C° 0.5 mm 2 m/S 757 mmHg 78%
20:00 +25°C° 0.5 mm 2 m/S 757 mmHg 84%
21:00 +24°C° 0.1 mm 1 m/S 757 mmHg 85%
22:00 +24°C° 0.1 mm 1 m/S 757 mmHg 86%
23:00 +24°C° 0.1 mm 1 m/S 757 mmHg 87%

Morgen, 23 Juni, Mittwoch

Zeit Temperatur Niederschläge Wind Luftdruck Luftfeuchtigkeit
00:00 +24°C° 0.1 mm 1 m/S 757 mmHg 87%
01:00 +21°C° 0.1 mm 0 m/S 757 mmHg 87%
02:00 +21°C° 0.1 mm 0 m/S 757 mmHg 87%
03:00 +21°C° 0 mm 0 m/S 757 mmHg 87%
04:00 +23°C° 0 mm 1 m/S 757 mmHg 87%
05:00 +23°C° 0 mm 1 m/S 757 mmHg 87%
06:00 +24°C° 0 mm 1 m/S 757 mmHg 80%
07:00 +26°C° 0 mm 1 m/S 757 mmHg 74%
08:00 +27°C° 0 mm 1 m/S 758 mmHg 67%
09:00 +28°C° 0 mm 2 m/S 758 mmHg 62%
10:00 +29°C° 0 mm 2 m/S 758 mmHg 57%
11:00 +31°C° 0 mm 2 m/S 758 mmHg 53%
12:00 +31°C° 0 mm 2 m/S 758 mmHg 51%
13:00 +32°C° 0 mm 2 m/S 758 mmHg 49%
14:00 +32°C° 0 mm 2 m/S 758 mmHg 47%
15:00 +31°C° 0.1 mm 2 m/S 758 mmHg 51%
16:00 +31°C° 0.1 mm 3 m/S 758 mmHg 54%
17:00 +30°C° 0.1 mm 3 m/S 758 mmHg 58%
18:00 +29°C° 0.2 mm 2 m/S 758 mmHg 63%
19:00 +28°C° 0.2 mm 2 m/S 758 mmHg 69%
20:00 +26°C° 0.2 mm 1 m/S 758 mmHg 74%
21:00 +26°C° 0.1 mm 2 m/S 758 mmHg 77%
22:00 +25°C° 0.1 mm 2 m/S 758 mmHg 79%
23:00 +24°C° 0.1 mm 2 m/S 759 mmHg 81%

übermorgen, 24 Juni, Donnerstag

Zeit Temperatur Niederschläge Wind Luftdruck Luftfeuchtigkeit
00:00 +24°C° 0 mm 2 m/S 758 mmHg 82%
01:00 +24°C° 0 mm 2 m/S 758 mmHg 83%
02:00 +24°C° 0 mm 2 m/S 758 mmHg 84%
03:00 +24°C° 0 mm 2 m/S 758 mmHg 84%
04:00 +24°C° 0 mm 2 m/S 758 mmHg 83%
05:00 +24°C° 0 mm 2 m/S 758 mmHg 83%
06:00 +26°C° 0 mm 3 m/S 758 mmHg 75%
07:00 +28°C° 0 mm 3 m/S 758 mmHg 68%
08:00 +30°C° 0 mm 3 m/S 758 mmHg 61%
09:00 +31°C° 0 mm 3 m/S 758 mmHg 56%
10:00 +33°C° 0 mm 3 m/S 758 mmHg 51%
11:00 +35°C° 0 mm 2 m/S 757 mmHg 46%
12:00 +35°C° 0 mm 3 m/S 757 mmHg 45%
13:00 +36°C° 0 mm 3 m/S 757 mmHg 44%
14:00 +36°C° 0 mm 3 m/S 757 mmHg 43%
15:00 +35°C° 0.4 mm 4 m/S 757 mmHg 48%
16:00 +34°C° 0.4 mm 4 m/S 757 mmHg 53%
17:00 +33°C° 0.4 mm 4 m/S 757 mmHg 57%
18:00 +29°C° 2.8 mm 4 m/S 757 mmHg 68%
19:00 +27°C° 2.8 mm 4 m/S 758 mmHg 78%
20:00 +25°C° 2.8 mm 4 m/S 758 mmHg 88%
21:00 +23°C° 1.1 mm 4 m/S 758 mmHg 88%
22:00 +24°C° 1.1 mm 3 m/S 758 mmHg 88%
23:00 +23°C° 1.1 mm 2 m/S 758 mmHg 87%

25 Juni, Freitag

Zeit Temperatur Niederschläge Wind Luftdruck Luftfeuchtigkeit
00:00 +23°C° 0.1 mm 2 m/S 758 mmHg 87%
01:00 +23°C° 0.1 mm 2 m/S 758 mmHg 87%
02:00 +23°C° 0.1 mm 1 m/S 758 mmHg 87%
03:00 +23°C° 0.1 mm 1 m/S 758 mmHg 87%
04:00 +23°C° 0.1 mm 1 m/S 758 mmHg 86%
05:00 +23°C° 0.1 mm 1 m/S 758 mmHg 85%
06:00 +25°C° 0.1 mm 1 m/S 758 mmHg 79%
07:00 +26°C° 0.1 mm 2 m/S 758 mmHg 73%
08:00 +27°C° 0.1 mm 2 m/S 758 mmHg 68%
09:00 +28°C° 0 mm 2 m/S 758 mmHg 63%
10:00 +29°C° 0 mm 2 m/S 757 mmHg 58%
11:00 +31°C° 0 mm 2 m/S 757 mmHg 53%
12:00 +31°C° 0 mm 2 m/S 757 mmHg 52%
13:00 +31°C° 0 mm 3 m/S 757 mmHg 50%
14:00 +33°C° 0 mm 3 m/S 757 mmHg 49%
15:00 +31°C° 0 mm 3 m/S 757 mmHg 50%
16:00 +31°C° 0 mm 3 m/S 757 mmHg 52%
17:00 +31°C° 0 mm 3 m/S 757 mmHg 54%
18:00 +29°C° 0 mm 3 m/S 757 mmHg 60%
19:00 +27°C° 0 mm 2 m/S 756 mmHg 66%
20:00 +26°C° 0 mm 2 m/S 756 mmHg 73%
21:00 +25°C° 0.3 mm 2 m/S 756 mmHg 76%
22:00 +24°C° 0.3 mm 2 m/S 756 mmHg 78%
23:00 +24°C° 0.3 mm 2 m/S 757 mmHg 81%

26 Juni, Samstag

Zeit Temperatur Niederschläge Wind Luftdruck Luftfeuchtigkeit
00:00 +23°C° 0.1 mm 2 m/S 757 mmHg 83%
01:00 +23°C° 0.1 mm 1 m/S 757 mmHg 84%
02:00 +23°C° 0.1 mm 1 m/S 757 mmHg 85%
03:00 +23°C° 0 mm 1 m/S 756 mmHg 85%
04:00 +23°C° 0 mm 2 m/S 756 mmHg 85%
05:00 +23°C° 0 mm 2 m/S 756 mmHg 85%
06:00 +25°C° 0 mm 2 m/S 756 mmHg 79%
07:00 +26°C° 0 mm 2 m/S 756 mmHg 73%
08:00 +28°C° 0 mm 3 m/S 756 mmHg 66%
09:00 +29°C° 0 mm 3 m/S 756 mmHg 62%
10:00 +30°C° 0 mm 3 m/S 756 mmHg 57%
11:00 +31°C° 0 mm 2 m/S 756 mmHg 52%
12:00 +32°C° 0 mm 2 m/S 756 mmHg 50%
13:00 +32°C° 0 mm 2 m/S 756 mmHg 47%
14:00 +34°C° 0 mm 2 m/S 756 mmHg 45%
15:00 +34°C° 0 mm 2 m/S 756 mmHg 46%
16:00 +34°C° 0 mm 2 m/S 755 mmHg 47%
17:00 +32°C° 0 mm 2 m/S 755 mmHg 48%
18:00 +31°C° 0 mm 2 m/S 755 mmHg 56%
19:00 +29°C° 0 mm 2 m/S 755 mmHg 63%
20:00 +27°C° 0 mm 3 m/S 756 mmHg 71%
21:00 +26°C° 0.8 mm 2 m/S 756 mmHg 76%
22:00 +25°C° 0.8 mm 2 m/S 756 mmHg 80%
23:00 +24°C° 0.8 mm 2 m/S 756 mmHg 85%

27 Juni, Sonntag

Zeit Temperatur Niederschläge Wind Luftdruck Luftfeuchtigkeit
00:00 +24°C° 0.1 mm 2 m/S 756 mmHg 85%
01:00 +24°C° 0.1 mm 2 m/S 756 mmHg 85%
02:00 +24°C° 0.1 mm 2 m/S 756 mmHg 86%
03:00 +24°C° 0 mm 1 m/S 756 mmHg 85%
04:00 +24°C° 0 mm 1 m/S 756 mmHg 85%
05:00 +24°C° 0 mm 1 m/S 756 mmHg 84%
06:00 +25°C° 0 mm 1 m/S 756 mmHg 78%
07:00 +27°C° 0 mm 1 m/S 756 mmHg 72%
08:00 +28°C° 0 mm 1 m/S 756 mmHg 66%
09:00 +29°C° 0 mm 1 m/S 756 mmHg 61%
10:00 +31°C° 0 mm 2 m/S 756 mmHg 57%
11:00 +32°C° 0 mm 2 m/S 756 mmHg 52%
12:00 +34°C° 0 mm 3 m/S 756 mmHg 50%
13:00 +34°C° 0 mm 3 m/S 756 mmHg 48%
14:00 +35°C° 0 mm 4 m/S 756 mmHg 46%
15:00 +34°C° 0 mm 4 m/S 756 mmHg 49%
16:00 +33°C° 0 mm 5 m/S 756 mmHg 53%
17:00 +32°C° 0 mm 5 m/S 756 mmHg 56%
18:00 +29°C° 0.2 mm 4 m/S 756 mmHg 62%
19:00 +28°C° 0.2 mm 4 m/S 757 mmHg 68%
20:00 +26°C° 0.2 mm 3 m/S 757 mmHg 74%
21:00 +26°C° 0.1 mm 3 m/S 757 mmHg 77%
22:00 +25°C° 0.1 mm 3 m/S 757 mmHg 80%
23:00 +24°C° 0.1 mm 3 m/S 757 mmHg 83%
Mehr zeigen

Wir brauchen deine Erlaubnis

Meteoprog und unser Service Anbieter werden persönliche Daten aufbewahren, so wie Cookies, Geräte Bezeichnung oder ähnliche Technologien von deinem Gerät und Prozess, so wie Persönliche Daten Inhalte und Werbungen, genauso wie social Media und den Verkehr zu analysieren.

  • Aufbewahrung und/oder Zugang zu deiner Geräte Informationen.

    Cookies, Geräte Bezeichnung oder andere Informationen, können aufbewahrt oder Zugang zu deinem Gerät erhalten, für den Grund, der oben angegeben wird.

  • Personalisierte Werbung und Inhalte, Messungen, Einblick in das Publikum und Produkt Entwicklung.

    Werbungen und Inhalte können personalisiert werden, basierend auf ein Profil. Mehr Daten können besser personalisierte Werbungen und Inhalte hinzufügen. Werbung und Inhalte können gezeigt und gemessen werden. Einblicke über das Publikum, welche die Werbung gesehen haben und den Inhalt, können abgeleitet werden. So wie Daten können genutzt werden, um es zu verbessern oder die Benutzer Erfahrung zu verbessern das System und die Software.

Wenn du “Ich stimme zu” klickst, erlaubst du uns, die Cookies zu benutzen die Geräte Bezeichnung, den Web oder ähnliche Technologien zu benutzen. Deine Settings, können in deinem Gerät bei deinem Browser geändert werden.

Für den bestimmten Zweck, berechtigten Interessen beruhen darauf, mehr als auf den Inhalt. Du kannst mehr darüber in unseren Privaten und Cookie Politik lesen.